Weather History for Clarinda, IA

Change the Weather History Date:

Friday, February 22, 2013

  Actual Average Record
Temperature  
Mean Temperature 14 °F -  
Max Temperature 23 °F 39 °F 64 °F (2000)
Min Temperature 6 °F 23 °F 6 °F (2013)
Degree Days  
Heating Degree Days 50    
Moisture  
Dew Point 14 °F    
Average Humidity 85    
Maximum Humidity 100    
Minimum Humidity 68    
Precipitation  
Precipitation 0.00 in - - ()
Sea Level Pressure  
Sea Level Pressure 29.93 in    
Wind  
Wind Speed 6 mph (WNW)    
Max Wind Speed 16 mph    
Max Gust Speed 20 mph    
Visibility 9 miles    
Events Snow    
Averages and records for this station are not official NWS values.
T = Trace of Precipitation, MM = Missing Value Source: NWS Daily Summary

Daily Weather History Graph

Daily Weather History Graph

Search for Another Location

Airport:

Trip Planner

Search our weather history database for the weather conditions in past years. The results will help you decide how hot, cold, wet, or windy it might be!

Date:

Astronomy

Feb. 22, 2013 Rise Set
Actual Time 7:04 AM CST 6:03 PM CST
Civil Twilight 6:36 AM CST 6:31 PM CST
Nautical Twilight 6:04 AM CST 7:03 PM CST
Astronomical Twilight 5:32 AM CST 7:34 PM CST
Moon 3:15 PM CST (2/22) 4:50 AM CST (2/22)
Length of Visible Light 11h 55m
Length of Day
10h 59m
Waxing Gibbous, 90% of the Moon is Illuminated
Feb 22
Waxing Gibbous
Feb 25
Full
Mar 4
Last Quarter
Mar 11
New
Mar 19
First Quarter

Hourly Weather History & Observations

Time (CST) Temp. Windchill Dew Point Humidity Pressure Visibility Wind Dir Wind Speed Gust Speed Precip Events Conditions
12:15 AM 21.2 °F 16.4 °F 19.4 °F 93% 29.79 in 10.0 mi NNE 3.5 mph - N/A Snow Light Snow
12:35 AM 21.2 °F 14.9 °F 19.4 °F 93% 29.79 in 10.0 mi NNE 4.6 mph - N/A Snow Light Snow
12:55 AM 21.2 °F - 19.4 °F 93% 29.79 in 10.0 mi Calm Calm - N/A   Overcast
1:15 AM 21.2 °F 16.4 °F 19.4 °F 93% 29.79 in 10.0 mi NNE 3.5 mph - N/A   Overcast
1:35 AM 21.2 °F 16.4 °F 19.4 °F 93% 29.79 in 5.0 mi North 3.5 mph - N/A Snow Light Snow
1:55 AM 21.2 °F 14.9 °F 19.4 °F 93% 29.79 in 7.0 mi North 4.6 mph - N/A Snow Light Snow
2:15 AM 21.2 °F 14.9 °F 19.4 °F 93% 29.79 in 5.0 mi North 4.6 mph - N/A Snow Light Snow
2:35 AM 21.2 °F 16.4 °F 19.4 °F 93% 29.79 in 4.0 mi North 3.5 mph - N/A Snow Light Snow
2:55 AM 21.2 °F - 19.4 °F 93% 29.79 in 7.0 mi Calm Calm - N/A Snow Light Snow
3:35 AM 21.2 °F 14.9 °F 19.4 °F 93% 29.79 in 5.0 mi WNW 4.6 mph - N/A Snow Light Snow
3:55 AM 21.2 °F 14.9 °F 19.4 °F 93% 29.78 in 4.0 mi NW 4.6 mph - N/A Snow Light Snow
4:15 AM 19.4 °F 11.5 °F 19.4 °F 100% 29.79 in 3.0 mi WNW 5.8 mph - N/A Snow Light Snow
4:35 AM 19.4 °F 10.4 °F 17.6 °F 93% 29.80 in 5.0 mi NW 6.9 mph - N/A Snow Light Snow
4:55 AM 19.4 °F 9.5 °F 17.6 °F 93% 29.80 in 5.0 mi WNW 8.1 mph - N/A Snow Light Snow
5:15 AM 17.6 °F 7.3 °F 15.8 °F 93% 29.81 in 7.0 mi WNW 8.1 mph - N/A Snow Light Snow
5:35 AM 17.6 °F 6.4 °F 15.8 °F 93% 29.81 in 10.0 mi NW 9.2 mph - N/A   Scattered Clouds
5:55 AM 15.8 °F 3.4 °F 15.8 °F 100% 29.82 in 10.0 mi NW 10.4 mph - N/A   Clear
6:15 AM 15.8 °F 5.1 °F 12.2 °F 86% 29.82 in 10.0 mi WNW 8.1 mph - N/A   Clear
6:35 AM 15.8 °F 4.2 °F 12.2 °F 86% 29.83 in 10.0 mi WNW 9.2 mph - N/A   Clear
6:55 AM 15.8 °F 5.1 °F 12.2 °F 86% 29.83 in 10.0 mi NW 8.1 mph - N/A   Clear
7:35 AM 15.8 °F 5.1 °F 12.2 °F 86% 29.86 in 10.0 mi NW 8.1 mph - N/A   Clear
7:55 AM 15.8 °F 5.1 °F 12.2 °F 86% 29.87 in 10.0 mi WNW 8.1 mph - N/A   Clear
8:15 AM 15.8 °F 5.1 °F 12.2 °F 86% 29.89 in 10.0 mi WNW 8.1 mph - N/A   Mostly Cloudy
8:35 AM 17.6 °F 7.3 °F 14.0 °F 86% 29.90 in 10.0 mi WNW 8.1 mph - N/A   Overcast
8:55 AM 17.6 °F 6.4 °F 14.0 °F 86% 29.91 in 10.0 mi WNW 9.2 mph - N/A   Overcast
9:15 AM 17.6 °F 5.7 °F 14.0 °F 86% 29.92 in 10.0 mi WNW 10.4 mph - N/A   Mostly Cloudy
9:35 AM 17.6 °F 6.4 °F 14.0 °F 86% 29.93 in 10.0 mi WNW 9.2 mph - N/A   Mostly Cloudy
9:55 AM 17.6 °F 3.7 °F 14.0 °F 86% 29.93 in 10.0 mi WNW 13.8 mph 17.3 mph N/A   Scattered Clouds
10:15 AM 17.6 °F 5.0 °F 14.0 °F 86% 29.93 in 10.0 mi WNW 11.5 mph - N/A   Clear
10:35 AM 19.4 °F 7.2 °F 14.0 °F 80% 29.94 in 10.0 mi NW 11.5 mph - N/A   Clear
10:55 AM 19.4 °F 6.0 °F 14.0 °F 80% 29.95 in 10.0 mi WNW 13.8 mph - N/A   Clear
11:15 AM 21.2 °F 11.7 °F 15.8 °F 80% 29.96 in 10.0 mi WNW 8.1 mph - N/A   Clear
11:35 AM 21.2 °F 10.1 °F 15.8 °F 80% 29.97 in 10.0 mi WNW 10.4 mph - N/A   Clear
11:55 AM 21.2 °F 8.9 °F 15.8 °F 80% 29.97 in 10.0 mi West 12.7 mph - N/A   Clear
12:15 PM 21.2 °F 8.9 °F 15.8 °F 80% 29.97 in 7.0 mi WNW 12.7 mph - N/A Snow Light Snow
12:35 PM 21.2 °F 9.5 °F 15.8 °F 80% 29.98 in 7.0 mi West 11.5 mph - N/A   Clear
12:55 PM 21.2 °F 8.9 °F 15.8 °F 80% 29.98 in 10.0 mi West 12.7 mph - N/A   Clear
1:15 PM 21.2 °F 8.9 °F 15.8 °F 80% 29.98 in 10.0 mi West 12.7 mph - N/A   Clear
1:35 PM 23.0 °F 11.7 °F 15.8 °F 74% 29.98 in 10.0 mi West 11.5 mph 18.4 mph N/A   Clear
1:55 PM 21.2 °F 9.5 °F 15.8 °F 80% 29.98 in 10.0 mi West 11.5 mph - N/A   Scattered Clouds
2:15 PM 21.2 °F 8.9 °F 15.8 °F 80% 29.97 in 10.0 mi West 12.7 mph - N/A   Clear
2:35 PM 21.2 °F 7.8 °F 15.8 °F 80% 29.98 in 10.0 mi WNW 15.0 mph 18.4 mph N/A   Clear
2:55 PM 21.2 °F 7.3 °F 15.8 °F 80% 29.97 in 10.0 mi West 16.1 mph - N/A   Clear
3:15 PM 21.2 °F 8.9 °F 15.8 °F 80% 29.98 in 10.0 mi West 12.7 mph - N/A   Clear
3:35 PM 21.2 °F 8.3 °F 15.8 °F 80% 29.99 in 10.0 mi West 13.8 mph 19.6 mph N/A   Clear
3:55 PM 21.2 °F 8.9 °F 14.0 °F 74% 29.99 in 10.0 mi WNW 12.7 mph - N/A   Clear
4:15 PM 21.2 °F 11.7 °F 14.0 °F 74% 30.00 in 10.0 mi West 8.1 mph - N/A   Clear
4:35 PM 21.2 °F 11.7 °F 14.0 °F 74% 30.00 in 10.0 mi WNW 8.1 mph - N/A   Clear
4:55 PM 21.2 °F 12.6 °F 14.0 °F 74% 30.00 in 10.0 mi WNW 6.9 mph - N/A   Clear
5:15 PM 21.2 °F 11.7 °F 12.2 °F 68% 30.00 in 10.0 mi WNW 8.1 mph - N/A   Clear
5:35 PM 19.4 °F 11.5 °F 12.2 °F 74% 30.00 in 10.0 mi WNW 5.8 mph - N/A   Clear
5:55 PM 17.6 °F 8.2 °F 12.2 °F 79% 30.01 in 10.0 mi West 6.9 mph - N/A   Clear
6:15 PM 17.6 °F 9.3 °F 10.4 °F 73% 30.01 in 10.0 mi West 5.8 mph - N/A   Clear
6:35 PM 15.8 °F 7.2 °F 10.4 °F 79% 30.02 in 10.0 mi WNW 5.8 mph - N/A   Clear
6:55 PM 15.8 °F 10.2 °F 10.4 °F 79% 30.03 in 10.0 mi WNW 3.5 mph - N/A   Clear
7:15 PM 15.8 °F - 10.4 °F 79% 30.03 in 10.0 mi Calm Calm - N/A   Mostly Cloudy
7:35 PM 10.4 °F - 6.8 °F 85% 30.03 in 10.0 mi Calm Calm - N/A   Mostly Cloudy
7:55 PM 12.2 °F - 8.6 °F 85% 30.03 in 10.0 mi Calm Calm - N/A   Scattered Clouds
8:15 PM 8.6 °F 2.0 °F 5.0 °F 85% 30.03 in 10.0 mi West 3.5 mph - N/A   Clear
8:35 PM 12.2 °F 4.3 °F 8.6 °F 85% 30.04 in 10.0 mi West 4.6 mph - N/A   Mostly Cloudy
8:55 PM 12.2 °F 4.3 °F 8.6 °F 85% 30.03 in 10.0 mi West 4.6 mph - N/A   Overcast
9:15 PM 12.2 °F 2.9 °F 10.4 °F 92% 30.04 in 10.0 mi West 5.8 mph - N/A   Overcast
9:35 PM 14.0 °F 6.5 °F 10.4 °F 86% 30.04 in 10.0 mi West 4.6 mph - N/A   Overcast
9:55 PM 12.2 °F 4.3 °F 8.6 °F 85% 30.03 in 10.0 mi West 4.6 mph - N/A   Mostly Cloudy
10:15 PM 10.4 °F 2.2 °F 8.6 °F 92% 30.03 in 10.0 mi WSW 4.6 mph - N/A   Mostly Cloudy
10:35 PM 12.2 °F - 8.6 °F 85% 30.03 in 10.0 mi Calm Calm - N/A   Mostly Cloudy
10:55 PM 12.2 °F 4.3 °F 8.6 °F 85% 30.03 in 10.0 mi WSW 4.6 mph - N/A   Overcast
11:15 PM 8.6 °F 2.0 °F 6.8 °F 92% 30.03 in 10.0 mi West 3.5 mph - N/A   Mostly Cloudy
11:35 PM 6.8 °F - 5.0 °F 92% 30.03 in 10.0 mi Calm Calm - N/A   Scattered Clouds
11:55 PM 8.6 °F - 6.8 °F 92% 30.03 in 10.0 mi Calm Calm - N/A   Mostly Cloudy